Location: Contre
(49.7477°N, 2.0963°E)
Time: 07:50:16
(UTC+00:00)

DX 1 - Visible Passes

Search period start: 21 May 2024 00:00
Search period end: 31 May 2024 00:00
Orbit: 609 x 619 km, 98.3° (Epoch: 20 May)

Date Brightness Start Highest point End Pass type
(mag) Time Alt. Az. Time Alt. Az. Time Alt. Az.
21 May ? 00:25:58 10° N 00:30:12 55° WNW 00:31:35 37° SW visible
21 May ? 23:05:58 10° NE 23:09:32 25° E 23:10:16 24° ESE visible
22 May ? 00:41:36 10° N 00:45:37 39° WNW 00:47:19 27° WSW visible
22 May ? 23:21:11 10° NNE 23:25:08 34° E 23:25:59 31° ESE visible
23 May ? 00:57:17 10° N 01:01:00 29° WNW 01:03:02 20° WSW visible
23 May ? 23:36:30 10° NNE 23:40:42 48° E 23:41:41 40° SE visible
24 May ? 01:13:03 10° N 01:16:22 22° WNW 01:18:44 14° WSW visible
24 May ? 23:51:54 10° NNE 23:56:13 69° ESE 23:57:23 45° S visible
25 May ? 01:28:56 10° NNW 01:31:40 17° WNW 01:34:24 10° W visible
25 May ? 22:33:33 10° ENE 22:35:08 12° E 22:36:01 11° E visible
26 May ? 00:07:21 10° NNE 00:11:41 85° WNW 00:13:04 43° SSW visible
26 May ? 01:45:05 10° NNW 01:46:57 13° NW 01:48:48 10° W visible
26 May ? 22:48:01 10° NE 22:50:46 16° E 22:51:42 15° ESE visible
27 May ? 00:22:52 10° N 00:27:07 61° WNW 00:28:45 35° SW visible
27 May ? 23:02:57 10° NE 23:06:22 23° E 23:07:22 21° ESE visible
28 May ? 00:38:25 10° N 00:42:31 43° WNW 00:44:25 27° WSW visible
28 May ? 23:18:05 10° NNE 23:21:57 31° E 23:23:01 27° SE visible
29 May ? 00:54:03 10° N 00:57:52 32° WNW 01:00:04 20° WSW visible
29 May ? 23:33:20 10° NNE 23:37:28 43° E 23:38:40 34° SE visible
30 May ? 01:09:44 10° N 01:13:11 24° WNW 01:15:43 14° WSW visible
30 May ? 23:48:40 10° NNE 23:52:56 61° ESE 23:54:19 39° SSE visible
